Location: Unspecified
(52.4292°N, 19.3359°E)
Time: 00:02:16
(UTC+02:00)

A-11 Canister half - Pass Details

Date: 25 May 2024
Orbit: 1515 x 1685 km, 47.2° (Epoch: 19 June)

Event Time Altitude Azimuth Distance (km) Brightness Sun altitude
Rises 06:07:07 0° 273° (W) 4,720 11.0 11.8°
Reaches altitude 10° 06:10:15 10° 270° (W) 3,718 10.5 12.2°
Maximum altitude 06:19:20 59° 194° (SSW) 1,714 9.3 13.5°
Drops below altitude 10° 06:28:19 10° 118° (ESE) 3,674 11.8 14.9°
Sets 06:31:23 0° 115° (ESE) 4,660 12.4 15.3°
